#timestamp,LO_Frequency,Hit,StdDev 
1644008415.9,286047003.1,N
1644008435.7,286047001.9,N
1644008455.5,286046999.4,N
1644008475.4,286047000.9,N
1644008495.2,286047002.8,N
1644008515.0,286047004.9,N
1644008515.9,286047004.9,N
1644008535.8,286047005.7,N
1644008555.6,286047003.1,N
1644008575.5,286047000.6,N
1644008595.3,286046997.2,N
1644008615.1,286046999.4,N
1644008635.9,286046997.0,N
1644008655.7,286046999.5,N
1644008675.5,286046996.8,N
1644008695.4,286046997.0,N
1644008715.2,286046997.0,N
1644008735.1,286046997.1,N
1644008736.0,286046997.1,N
1644008755.8,286046997.0,N
1644008775.6,286046999.2,N
1644008795.5,286047000.3,N
1644008815.3,286047004.0,N
1644008835.1,286047005.6,N
1644008855.9,286047003.1,N
1644008875.7,286047004.7,N
1644008895.6,286047005.0,N
1644008915.4,286047006.7,N
1644008935.2,286047008.7,N
1644008955.1,286047010.0,N
1644008956.0,286047010.0,N
1644008975.8,286047011.2,N
1644008995.7,286047014.0,Y
1644009015.5,286047009.5,P
1644009035.3,286047008.9,N
1644009055.2,286047008.6,N
1644009075.9,286047008.8,N
1644009095.7,286047007.1,N
1644009115.6,286047006.4,N
1644009135.4,286047006.2,N
1644009155.3,286047010.0,Y
1644009175.1,286047006.0,P
1644009176.0,286047006.0,P
1644009195.8,286046999.8,N
1644009215.7,286047000.2,N
1644009235.5,286047000.2,N
1644009255.3,286046993.6,N
1644009275.2,286046997.7,N
1644009295.0,286046997.0,N
1644009295.9,286046997.0,N
1644009315.8,286047002.3,N
1644009335.6,286047001.7,N
1644009355.4,286047002.1,N
1644009375.3,286046996.9,N
1644009395.1,286046998.4,N
1644009415.8,286047000.8,N
1644009435.7,286047004.4,N
1644009455.5,286047003.7,N
1644009475.4,286047004.1,N
1644009495.2,286046998.8,N
1644009515.0,286047000.8,N
1644009515.9,286047000.8,N
1644009535.8,286046998.5,N
1644009555.6,286047001.3,N
1644009575.4,286047001.3,N
1644009595.3,286047002.0,N
1644009615.1,286046999.9,N
1644009635.9,286047002.3,N
1644009655.7,286047003.3,N
1644009675.5,286047007.0,N
1644009695.4,286047004.6,N
1644009715.2,286047006.6,N
1644009735.0,286047007.1,N
1644009735.9,286047007.1,N
1644009755.8,286047005.4,N
1644009775.6,286047005.3,N
1644009795.5,286047003.2,N
1644009815.3,286047007.5,N
1644009835.1,286047005.8,N
1644009855.9,286047003.9,N
1644009875.7,286047003.8,N
1644009895.5,286047004.3,N
1644009915.4,286047001.4,N
1644009935.2,286047001.7,N
1644009955.1,286047002.7,N
1644009956.0,286047002.7,N
1644009975.8,286047000.0,N
1644009995.6,286046999.8,N
1644010015.5,286046999.8,N
1644010035.3,286047004.1,N
1644010055.2,286046999.8,N
1644010075.9,286046999.4,N
1644010095.7,286046998.2,N
1644010115.6,286047002.8,N
1644010135.4,286047002.3,N
1644010155.2,286047000.5,N
1644010175.1,286046999.9,N
1644010176.0,286046999.9,N
1644010195.8,286047000.5,N
1644010215.7,286046999.6,N
1644010235.5,286046997.0,N
1644010255.3,286046998.4,N
1644010275.2,286046999.5,N
1644010295.0,286046998.6,N
1644010295.9,286046998.6,N
1644010315.7,286047000.3,N
1644010335.6,286047001.1,N
1644010355.4,286047002.2,N
1644010375.3,286047011.9,Y
1644010395.1,286047000.1,P
1644010396.0,286047000.1,N
1644010415.8,286047001.2,N
1644010435.7,286046999.4,N
1644010455.5,286047001.2,N
1644010475.3,286046998.6,N
1644010495.2,286046999.6,N
1644010515.0,286047000.2,N
1644010515.9,286047000.2,N
1644010535.8,286047000.8,N
1644010555.6,286047000.8,N
1644010575.4,286046996.5,Y
1644010595.3,286046999.4,P
1644010615.1,286046995.4,P
1644010635.9,286046995.0,N
1644010655.7,286046997.8,N
1644010675.5,286046993.7,Y
1644010695.4,286046999.4,P
1644010715.2,286046999.9,N
1644010735.0,286046999.7,N
1644010735.9,286046999.7,N
1644010755.8,286047000.2,N
1644010775.6,286047000.2,N
1644010795.5,286047003.5,Y
1644010815.3,286047004.5,P
1644010835.1,286047006.7,N
1644010855.9,286047006.2,N
1644010875.7,286047004.6,N
1644010895.5,286047005.7,N
1644010915.4,286047004.6,N
1644010935.2,286047007.2,Y
1644010955.1,286047001.6,P
1644010956.0,286047001.6,N
1644010975.8,286047000.1,N
1644010995.6,286046999.6,N
1644011015.5,286047001.2,N
1644011035.3,286047001.1,N
1644011055.1,286046999.9,N
1644011075.9,286047002.0,N
1644011095.7,286047002.8,N
1644011115.6,286046996.9,N
1644011135.4,286046996.7,N
1644011155.2,286046998.0,N
1644011175.1,286046998.0,N
1644011176.0,286046998.0,N
1644011195.8,286046997.5,N
1644011215.6,286046995.2,N
1644011235.5,286046997.5,N
1644011255.3,286046996.9,N
1644011275.2,286046997.7,N
1644011295.9,286046998.3,N
1644011315.7,286047000.8,N
1644011335.6,286047001.1,N
1644011355.4,286047000.7,N
1644011375.2,286047002.6,N
1644011395.1,286047002.5,N
1644011396.0,286047002.5,N
1644011415.8,286047003.8,N
1644011435.7,286047007.5,Y
1644011455.5,286047007.2,P
1644011475.3,286047004.5,N
1644011495.2,286047003.4,N
1644011515.0,286047003.0,N
1644011515.9,286047003.0,N
1644011535.8,286047004.4,N
1644011555.6,286047002.6,N
1644011575.4,286046999.8,N
1644011595.3,286047002.7,N
1644011615.1,286046999.9,N
1644011635.8,286046999.3,N
1644011655.7,286047000.4,N
1644011675.5,286047001.8,N
1644011695.4,286047000.4,N
1644011715.2,286047001.9,N
1644011735.0,286047002.6,N
1644011735.9,286047002.6,N
1644011755.8,286047003.5,N
1644011775.6,286047001.7,N
1644011795.4,286047001.7,N
1644011815.3,286047001.9,N
1644011835.1,286046999.7,N
1644011855.9,286047001.9,N
1644011875.7,286047001.6,N
1644011895.5,286047002.1,N
1644011915.4,286047002.0,N
1644011935.2,286047005.8,Y
1644011955.0,286047004.2,P
1644011955.9,286047004.2,P
1644011975.8,286047003.9,P
1644011995.6,286047005.6,Y
